Location: Sperry Observatory
(40.6664°N, 74.3236°W)
Time: 03:17:20
(UTC-04:00)

UOSAT-12 - Visible Passes

Search period start: 18 April 2015 00:00
Search period end: 28 April 2015 00:00
Orbit: 596 x 660 km, 64.6° (Epoch: 17 April)

Date Brightness Start Highest point End Pass type
(mag) Time Alt. Az. Time Alt. Az. Time Alt. Az.
18 Apr 9.7 22:13:20 10° NNE 22:14:38 11° NNE 22:15:20 11° NE visible
18 Apr 9.6 23:51:11 10° NNW 23:52:38 20° NNW 23:52:38 20° NNW visible
19 Apr 9.2 22:32:02 10° N 22:34:53 19° NNE 22:34:53 19° NNE visible
20 Apr 9.9 00:11:22 10° NW 00:12:12 15° NW 00:12:12 15° NW visible
20 Apr 8.8 22:51:37 10° NNW 22:54:28 29° NNE 22:54:28 29° NNE visible
21 Apr 9.4 21:33:10 10° N 21:35:10 13° NE 21:36:46 11° ENE visible
21 Apr 8.8 23:11:32 10° NNW 23:14:04 32° NNW 23:14:04 32° NNW visible
22 Apr 8.8 21:52:14 10° N 21:55:52 22° NE 21:56:24 22° NE visible
22 Apr 9.3 23:31:48 10° NW 23:33:42 23° NW 23:33:42 23° NW visible
23 Apr 7.9 22:11:54 10° NNW 22:16:04 41° NE 22:16:04 41° NE visible
23 Apr 9.8 23:52:37 10° WNW 23:53:23 13° WNW 23:53:23 13° WNW visible
24 Apr 9.3 20:53:10 10° N 20:55:40 14° NE 20:58:18 10° ENE visible
24 Apr 7.5 22:31:53 10° NNW 22:35:46 61° NNW 22:35:46 61° NNW visible
25 Apr 8.6 21:12:26 10° N 21:16:19 25° NE 21:18:12 20° E visible
25 Apr 8.4 22:52:15 10° NW 22:55:31 35° W 22:55:31 35° W visible
26 Apr 7.5 21:32:11 10° NNW 21:36:43 50° NE 21:37:59 38° E visible
26 Apr 9.4 23:13:17 10° WNW 23:15:18 17° W 23:15:18 17° W visible
27 Apr 9.1 20:13:15 10° N 20:16:10 16° NE 20:19:10 10° E visible
27 Apr 7.1 21:52:15 10° NW 21:56:55 76° WSW 21:57:49 56° S visible
